Powrót do katalogu

THORAD AGENA D DEB

AktywnySSO
NORAD 10136·DEBRIS·🇺🇸 United States

Wystrzelony Apr 8, 1970 z Vandenberg Space Force Base

Loading…

Następne Przeloty (najbliższe 24 godziny)

TLE

ŚwieżeSource: Space-Track

Epoka: Sep 14, 2026, 10:06 UTC

1 10136U 70025NQ  26257.42097554  .00000002  00000-0  75352-4 0  9991
2 10136 100.1762 235.6072 0001664 114.7302  48.7989 13.52045021782555

Śledź THORAD AGENA D DEB w czasie rzeczywistym z AllMySat

Download on the App Store